EIN07A EGSS-EINN

Flight info

Callsign EIN07A
Flight time 1h 1m
Altitude 36000
Route NUGBO M183 SILVA P86 DIDZA N14 OKSAW DCT BIBPE DCT FELCA DCT OFSOX DCT SLANY DCT TIPUR TIPUR2D
Aircraft A320/M-SDE3FGHIRWY/LB1

Departure

Time 2026-05-07 21:42
Airport London Stansted Airport (EGSS)

Arrival

Time 2026-05-07 22:43
Airport Shannon Airport (EINN)
Time Latitude Longitude Altitude Speed Heading
2026-05-07 21:09 51.89049 0.25296 348 ft 0 kts 223°
2026-05-07 21:28 51.89050 0.25297 347 ft 2 kts 223°
2026-05-07 21:28 51.89068 0.25325 352 ft 4 kts 227°
2026-05-07 21:28 51.89086 0.25358 358 ft 4 kts 236°
2026-05-07 21:28 51.89098 0.25395 354 ft 4 kts 269°
2026-05-07 21:29 51.89094 0.25420 353 ft 1 kts 313°
2026-05-07 21:29 51.89092 0.25423 353 ft 2 kts 313°
2026-05-07 21:32 51.89097 0.25415 352 ft 2 kts 313°
2026-05-07 21:32 51.89109 0.25393 356 ft 3 kts 313°
2026-05-07 21:32 51.89112 0.25388 355 ft 3 kts 313°
2026-05-07 21:33 51.89128 0.25361 348 ft 5 kts 313°
2026-05-07 21:33 51.89160 0.25292 351 ft 9 kts 287°
2026-05-07 21:33 51.89125 0.25196 349 ft 11 kts 224°
2026-05-07 21:33 51.89060 0.25098 351 ft 14 kts 223°
2026-05-07 21:34 51.88983 0.24982 350 ft 16 kts 222°
2026-05-07 21:34 51.88891 0.24844 349 ft 20 kts 222°
2026-05-07 21:34 51.88780 0.24678 348 ft 24 kts 223°
2026-05-07 21:34 51.88653 0.24490 351 ft 25 kts 222°
2026-05-07 21:35 51.88522 0.24292 350 ft 26 kts 223°
2026-05-07 21:35 51.88387 0.24089 346 ft 27 kts 223°
2026-05-07 21:35 51.88245 0.23877 350 ft 28 kts 223°
2026-05-07 21:35 51.88098 0.23656 344 ft 30 kts 223°
2026-05-07 21:36 51.88025 0.23547 349 ft 19 kts 223°
2026-05-07 21:36 51.87923 0.23396 342 ft 21 kts 223°
2026-05-07 21:36 51.87814 0.23231 342 ft 22 kts 223°
2026-05-07 21:36 51.87744 0.23124 345 ft 11 kts 230°
2026-05-07 21:37 51.87741 0.23017 350 ft 10 kts 301°
2026-05-07 21:37 51.87781 0.22936 344 ft 8 kts 296°
2026-05-07 21:37 51.87757 0.22846 345 ft 10 kts 224°
2026-05-07 21:37 51.87704 0.22766 342 ft 13 kts 222°
2026-05-07 21:38 51.87638 0.22668 344 ft 13 kts 223°
2026-05-07 21:38 51.87567 0.22562 351 ft 13 kts 222°
2026-05-07 21:38 51.87518 0.22452 347 ft 11 kts 267°
2026-05-07 21:38 51.87545 0.22373 341 ft 3 kts 312°
2026-05-07 21:39 51.87547 0.22369 341 ft 0 kts 313°
2026-05-07 21:40 51.87553 0.22359 346 ft 5 kts 314°
2026-05-07 21:40 51.87592 0.22299 336 ft 10 kts 318°
2026-05-07 21:40 51.87668 0.22262 338 ft 13 kts 11°
2026-05-07 21:40 51.87746 0.22345 339 ft 9 kts 43°
2026-05-07 21:41 51.87761 0.22367 350 ft 0 kts 42°
2026-05-07 21:41 51.87808 0.22437 347 ft 39 kts 43°
2026-05-07 21:41 51.88188 0.23007 338 ft 107 kts 43°
2026-05-07 21:41 51.88869 0.24031 348 ft 158 kts 43°
2026-05-07 21:42 51.89676 0.25204 995 ft 152 kts 44°
2026-05-07 21:42 51.90464 0.26380 1601 ft 154 kts 46°
2026-05-07 21:42 51.91293 0.27640 1830 ft 174 kts 47°
2026-05-07 21:42 51.92255 0.29087 1978 ft 203 kts 39°
2026-05-07 21:43 51.93649 0.29941 2243 ft 230 kts
2026-05-07 21:43 51.95285 0.29394 2598 ft 253 kts 329°
2026-05-07 21:43 51.96519 0.27342 3207 ft 261 kts 294°
2026-05-07 21:43 51.96990 0.24493 4044 ft 263 kts 279°
2026-05-07 21:44 51.97318 0.21559 4759 ft 268 kts 279°
2026-05-07 21:44 51.97637 0.18627 4963 ft 267 kts 279°
2026-05-07 21:44 51.97955 0.15661 5002 ft 266 kts 279°
2026-05-07 21:44 51.98271 0.12702 5008 ft 266 kts 279°
2026-05-07 21:45 51.98589 0.09742 5003 ft 266 kts 279°
2026-05-07 21:45 51.98857 0.06785 5004 ft 265 kts 271°
2026-05-07 21:45 51.98680 0.03812 5003 ft 264 kts 257°
2026-05-07 21:45 51.98295 0.00897 5000 ft 264 kts 257°
2026-05-07 21:46 51.97912 -0.02023 5001 ft 264 kts 257°
2026-05-07 21:46 51.97532 -0.04946 4997 ft 264 kts 258°
2026-05-07 21:46 51.97160 -0.07841 4991 ft 266 kts 257°
2026-05-07 21:46 51.96776 -0.10821 5712 ft 269 kts 258°
2026-05-07 21:47 51.96393 -0.13794 6645 ft 270 kts 258°
2026-05-07 21:47 51.96004 -0.16785 7484 ft 272 kts 258°
2026-05-07 21:47 51.95610 -0.19803 8310 ft 275 kts 258°
2026-05-07 21:47 51.95212 -0.22848 9148 ft 277 kts 257°
2026-05-07 21:48 51.94807 -0.25928 9973 ft 280 kts 257°
2026-05-07 21:48 51.94391 -0.29080 10416 ft 296 kts 257°
2026-05-07 21:48 51.93948 -0.32429 10632 ft 318 kts 257°
2026-05-07 21:48 51.93475 -0.36007 11159 ft 327 kts 257°
2026-05-07 21:49 51.92995 -0.39639 11833 ft 332 kts 257°
2026-05-07 21:49 51.92509 -0.43319 12544 ft 335 kts 257°
2026-05-07 21:49 51.92017 -0.47036 13253 ft 339 kts 256°
2026-05-07 21:49 51.91519 -0.50789 13949 ft 342 kts 256°
2026-05-07 21:50 51.91011 -0.54583 14568 ft 345 kts 256°
2026-05-07 21:50 51.90498 -0.58396 15194 ft 348 kts 256°
2026-05-07 21:50 51.89977 -0.62243 15817 ft 351 kts 256°
2026-05-07 21:50 51.89460 -0.66071 16422 ft 353 kts 256°
2026-05-07 21:51 51.88934 -0.69972 17036 ft 356 kts 256°
2026-05-07 21:51 51.88404 -0.73899 17647 ft 359 kts 256°
2026-05-07 21:51 51.87866 -0.77875 18254 ft 361 kts 256°
2026-05-07 21:51 51.87320 -0.81880 18785 ft 364 kts 256°
2026-05-07 21:52 51.86771 -0.85896 19315 ft 367 kts 256°
2026-05-07 21:52 51.86216 -0.89941 19838 ft 369 kts 256°
2026-05-07 21:52 51.85659 -0.93982 20373 ft 372 kts 256°
2026-05-07 21:52 51.84900 -0.97993 20892 ft 373 kts 246°
2026-05-07 21:53 51.83683 -1.01719 21402 ft 375 kts 236°
2026-05-07 21:53 51.82042 -1.05026 21915 ft 377 kts 225°
2026-05-07 21:53 51.80207 -1.08013 22432 ft 380 kts 225°
2026-05-07 21:53 51.78334 -1.11055 22937 ft 383 kts 225°
2026-05-07 21:54 51.76449 -1.14117 23425 ft 386 kts 225°
2026-05-07 21:54 51.74544 -1.17214 23857 ft 388 kts 225°
2026-05-07 21:54 51.72658 -1.20278 24257 ft 390 kts 225°
2026-05-07 21:54 51.70855 -1.23634 24644 ft 393 kts 237°
2026-05-07 21:55 51.69719 -1.27587 25010 ft 396 kts 253°
2026-05-07 21:55 51.69373 -1.32016 25376 ft 401 kts 270°
2026-05-07 21:55 51.69483 -1.36519 25737 ft 404 kts 271°
2026-05-07 21:55 51.69617 -1.41055 26102 ft 406 kts 271°
2026-05-07 21:56 51.69764 -1.45625 26462 ft 408 kts 271°
2026-05-07 21:56 51.69912 -1.50209 26809 ft 410 kts 271°
2026-05-07 21:56 51.70051 -1.54749 27153 ft 411 kts 271°
2026-05-07 21:56 51.70184 -1.59381 27495 ft 413 kts 270°
2026-05-07 21:57 51.70310 -1.64038 27834 ft 415 kts 270°
2026-05-07 21:57 51.70437 -1.68703 28140 ft 417 kts 271°
2026-05-07 21:57 51.70653 -1.73393 28459 ft 420 kts 273°
2026-05-07 21:57 51.70965 -1.78030 28767 ft 422 kts 275°
2026-05-07 21:58 51.71340 -1.82749 29089 ft 424 kts 275°
2026-05-07 21:58 51.71735 -1.87473 29373 ft 426 kts 275°
2026-05-07 21:58 51.72123 -1.92225 29672 ft 428 kts 275°
2026-05-07 21:58 51.72493 -1.97008 29951 ft 430 kts 275°
2026-05-07 21:59 51.72843 -2.01809 30210 ft 431 kts 274°
2026-05-07 21:59 51.73177 -2.06632 30433 ft 433 kts 274°
2026-05-07 21:59 51.73500 -2.11417 30653 ft 434 kts 274°
2026-05-07 21:59 51.73826 -2.16272 30870 ft 436 kts 274°
2026-05-07 22:00 51.74154 -2.21159 31104 ft 437 kts 274°
2026-05-07 22:00 51.74485 -2.26026 31409 ft 436 kts 274°
2026-05-07 22:00 51.74818 -2.30880 31712 ft 435 kts 274°
2026-05-07 22:00 51.75150 -2.35737 32011 ft 434 kts 274°
2026-05-07 22:01 51.75477 -2.40576 32307 ft 434 kts 274°
2026-05-07 22:01 51.75802 -2.45426 32598 ft 433 kts 274°
2026-05-07 22:01 51.76125 -2.50259 32891 ft 433 kts 274°
2026-05-07 22:01 51.76445 -2.55092 33181 ft 432 kts 273°
2026-05-07 22:02 51.76762 -2.59926 33480 ft 432 kts 273°
2026-05-07 22:02 51.77077 -2.64741 33775 ft 431 kts 273°
2026-05-07 22:02 51.77388 -2.69488 34057 ft 430 kts 273°
2026-05-07 22:02 51.77698 -2.74299 34308 ft 430 kts 273°
2026-05-07 22:03 51.78006 -2.79098 34532 ft 430 kts 273°
2026-05-07 22:03 51.78313 -2.83928 34745 ft 430 kts 273°
2026-05-07 22:03 51.78616 -2.88736 34951 ft 430 kts 273°
2026-05-07 22:03 51.78916 -2.93505 35147 ft 430 kts 273°
2026-05-07 22:04 51.79214 -2.98321 35354 ft 430 kts 273°
2026-05-07 22:04 51.79510 -3.03147 35535 ft 430 kts 273°
2026-05-07 22:04 51.79805 -3.07967 35717 ft 431 kts 274°
2026-05-07 22:04 51.80099 -3.12803 35888 ft 430 kts 273°
2026-05-07 22:05 51.80389 -3.17578 36040 ft 431 kts 273°
2026-05-07 22:05 51.80683 -3.22383 36071 ft 429 kts 273°
2026-05-07 22:05 51.81262 -3.31984 36063 ft 428 kts 273°
2026-05-07 22:06 51.81822 -3.41561 36058 ft 428 kts 273°
2026-05-07 22:06 51.82365 -3.51080 36046 ft 428 kts 273°
2026-05-07 22:07 51.83390 -3.60583 36055 ft 430 kts 279°
2026-05-07 22:07 51.84630 -3.70065 36052 ft 430 kts 279°
2026-05-07 22:08 51.85851 -3.79483 36056 ft 430 kts 279°
2026-05-07 22:08 51.87054 -3.88925 36047 ft 429 kts 279°
2026-05-07 22:09 51.88263 -3.98422 36044 ft 430 kts 279°
2026-05-07 22:09 51.89461 -4.07903 36040 ft 430 kts 279°
2026-05-07 22:10 51.90640 -4.17341 36040 ft 430 kts 279°
2026-05-07 22:10 51.91824 -4.26850 36040 ft 430 kts 279°
2026-05-07 22:11 51.92998 -4.36362 36040 ft 430 kts 279°
2026-05-07 22:11 51.94160 -4.45845 36041 ft 430 kts 279°
2026-05-07 22:12 51.95320 -4.55366 36039 ft 430 kts 279°
2026-05-07 22:12 51.96475 -4.64902 36034 ft 430 kts 279°
2026-05-07 22:13 51.97617 -4.74391 36036 ft 431 kts 279°
2026-05-07 22:13 51.98758 -4.83927 36038 ft 431 kts 279°
2026-05-07 22:14 51.99891 -4.93465 36036 ft 431 kts 279°
2026-05-07 22:14 52.01002 -5.03013 36035 ft 431 kts 279°
2026-05-07 22:15 52.02109 -5.12572 36037 ft 431 kts 279°
2026-05-07 22:15 52.03425 -5.22054 36034 ft 432 kts 287°
2026-05-07 22:16 52.05310 -5.31306 36032 ft 432 kts 287°
2026-05-07 22:16 52.07180 -5.40576 36035 ft 432 kts 287°
2026-05-07 22:17 52.09039 -5.49856 36036 ft 432 kts 287°
2026-05-07 22:17 52.10894 -5.59144 36034 ft 432 kts 287°
2026-05-07 22:18 52.13663 -5.73085 36034 ft 431 kts 287°
2026-05-07 22:19 52.15497 -5.82380 36036 ft 431 kts 287°
2026-05-07 22:19 52.17340 -5.91680 36032 ft 431 kts 287°
2026-05-07 22:20 52.19195 -6.00966 36031 ft 431 kts 287°
2026-05-07 22:20 52.20730 -6.08692 36031 ft 431 kts 287°
2026-05-07 22:21 52.22862 -6.19523 36015 ft 432 kts 287°
2026-05-07 22:21 52.24394 -6.27309 36009 ft 433 kts 287°
2026-05-07 22:22 52.26225 -6.36667 36011 ft 433 kts 287°
2026-05-07 22:22 52.28042 -6.46044 36013 ft 433 kts 287°
2026-05-07 22:23 52.29859 -6.55452 35138 ft 437 kts 287°
2026-05-07 22:23 52.30776 -6.60204 33933 ft 438 kts 287°
2026-05-07 22:23 52.31686 -6.64941 32739 ft 435 kts 287°
2026-05-07 22:23 52.32585 -6.69628 31692 ft 429 kts 287°
2026-05-07 22:24 52.33469 -6.74250 30705 ft 424 kts 287°
2026-05-07 22:24 52.34343 -6.78823 29706 ft 419 kts 286°
2026-05-07 22:24 52.35203 -6.83335 28676 ft 413 kts 286°
2026-05-07 22:24 52.36049 -6.87787 27696 ft 407 kts 286°
2026-05-07 22:25 52.36876 -6.92171 26758 ft 401 kts 286°
2026-05-07 22:25 52.37693 -6.96500 25960 ft 393 kts 285°
2026-05-07 22:25 52.38484 -7.00676 25540 ft 376 kts 285°
2026-05-07 22:25 52.39244 -7.04690 25121 ft 364 kts 285°
2026-05-07 22:26 52.39987 -7.08634 24688 ft 362 kts 285°
2026-05-07 22:26 52.40724 -7.12573 24249 ft 360 kts 285°
2026-05-07 22:26 52.41453 -7.16478 23810 ft 358 kts 285°
2026-05-07 22:26 52.42177 -7.20373 23320 ft 357 kts 285°
2026-05-07 22:27 52.42893 -7.24242 22850 ft 354 kts 285°
2026-05-07 22:27 52.43605 -7.28088 22419 ft 351 kts 285°
2026-05-07 22:27 52.44309 -7.31893 21980 ft 348 kts 285°
2026-05-07 22:27 52.45008 -7.35673 21553 ft 345 kts 285°
2026-05-07 22:28 52.45703 -7.39430 21130 ft 343 kts 285°
2026-05-07 22:28 52.46384 -7.43127 20709 ft 341 kts 285°
2026-05-07 22:28 52.47067 -7.46845 20287 ft 339 kts 285°
2026-05-07 22:28 52.47745 -7.50536 19871 ft 338 kts 285°
2026-05-07 22:29 52.48422 -7.54224 19456 ft 336 kts 284°
2026-05-07 22:29 52.49092 -7.57896 19039 ft 335 kts 284°
2026-05-07 22:29 52.49759 -7.61553 18631 ft 334 kts 285°
2026-05-07 22:29 52.50424 -7.65209 18201 ft 332 kts 284°
2026-05-07 22:30 52.51076 -7.68792 17784 ft 322 kts 284°
2026-05-07 22:30 52.51715 -7.72299 17398 ft 320 kts 284°
2026-05-07 22:30 52.52348 -7.75787 17011 ft 318 kts 284°
2026-05-07 22:30 52.52976 -7.79268 16623 ft 316 kts 284°
2026-05-07 22:31 52.53590 -7.82674 16254 ft 314 kts 284°
2026-05-07 22:31 52.54216 -7.86156 15875 ft 313 kts 284°
2026-05-07 22:31 52.54829 -7.89575 15504 ft 312 kts 284°
2026-05-07 22:31 52.55438 -7.92985 15138 ft 311 kts 284°
2026-05-07 22:32 52.56039 -7.96345 14760 ft 310 kts 284°
2026-05-07 22:32 52.56646 -7.99733 14400 ft 309 kts 284°
2026-05-07 22:32 52.57248 -8.03118 14038 ft 308 kts 284°
2026-05-07 22:32 52.57849 -8.06495 13643 ft 307 kts 284°
2026-05-07 22:33 52.58467 -8.09851 13255 ft 306 kts 288°
2026-05-07 22:33 52.59424 -8.12971 12881 ft 307 kts 302°
2026-05-07 22:33 52.60808 -8.15659 12487 ft 309 kts 313°
2026-05-07 22:33 52.62328 -8.18150 12095 ft 308 kts 313°
2026-05-07 22:34 52.63814 -8.20591 11729 ft 297 kts 313°
2026-05-07 22:34 52.65253 -8.22960 11324 ft 288 kts 313°
2026-05-07 22:34 52.66668 -8.25303 10950 ft 288 kts 313°
2026-05-07 22:34 52.68080 -8.27647 10565 ft 288 kts 313°
2026-05-07 22:35 52.69489 -8.29988 10182 ft 288 kts 313°
2026-05-07 22:35 52.70899 -8.32335 9784 ft 288 kts 313°
2026-05-07 22:35 52.72304 -8.34674 9350 ft 283 kts 313°
2026-05-07 22:35 52.73678 -8.36962 8973 ft 280 kts 313°
2026-05-07 22:36 52.75047 -8.39244 8580 ft 279 kts 313°
2026-05-07 22:36 52.76411 -8.41512 8192 ft 278 kts 313°
2026-05-07 22:36 52.77767 -8.43764 7796 ft 277 kts 313°
2026-05-07 22:36 52.79126 -8.46029 7370 ft 277 kts 312°
2026-05-07 22:37 52.80476 -8.48290 6948 ft 276 kts 312°
2026-05-07 22:37 52.81802 -8.50509 6531 ft 266 kts 312°
2026-05-07 22:37 52.83074 -8.52695 6116 ft 264 kts 306°
2026-05-07 22:37 52.83996 -8.55271 5698 ft 259 kts 288°
2026-05-07 22:38 52.84408 -8.58174 5042 ft 264 kts 271°
2026-05-07 22:38 52.84234 -8.61186 4502 ft 259 kts 253°
2026-05-07 22:38 52.83549 -8.63825 4154 ft 243 kts 237°
2026-05-07 22:38 52.82576 -8.65998 3839 ft 228 kts 232°
2026-05-07 22:39 52.81615 -8.68066 3538 ft 226 kts 232°
2026-05-07 22:39 52.80670 -8.70098 3227 ft 217 kts 232°
2026-05-07 22:39 52.79777 -8.72014 2936 ft 204 kts 232°
2026-05-07 22:39 52.78933 -8.73824 2674 ft 194 kts 233°
2026-05-07 22:40 52.78138 -8.75527 2422 ft 180 kts 233°
2026-05-07 22:40 52.77400 -8.77106 2156 ft 166 kts 233°
2026-05-07 22:40 52.76721 -8.78562 1921 ft 154 kts 233°
2026-05-07 22:40 52.76090 -8.79911 1725 ft 148 kts 233°
2026-05-07 22:41 52.75461 -8.81256 1525 ft 145 kts 234°
2026-05-07 22:41 52.74845 -8.82577 1340 ft 145 kts 233°
2026-05-07 22:41 52.74235 -8.83875 1139 ft 145 kts 233°
2026-05-07 22:41 52.73609 -8.85211 920 ft 146 kts 232°
2026-05-07 22:42 52.72990 -8.86531 710 ft 146 kts 232°
2026-05-07 22:42 52.72370 -8.87852 514 ft 146 kts 231°
2026-05-07 22:42 52.71756 -8.89161 321 ft 147 kts 231°
2026-05-07 22:42 52.71134 -8.90484 122 ft 146 kts 231°
2026-05-07 22:43 52.70530 -8.91762 27 ft 121 kts 231°
2026-05-07 22:43 52.70210 -8.92472 33 ft 36 kts 233°
2026-05-07 22:43 52.70068 -8.92774 35 ft 22 kts 232°
2026-05-07 22:43 52.70028 -8.92860 37 ft 9 kts 233°
2026-05-07 22:44 52.69980 -8.92947 37 ft 10 kts 217°
2026-05-07 22:44 52.69910 -8.92941 32 ft 14 kts 146°
2026-05-07 22:44 52.69850 -8.92848 26 ft 0 kts 134°
2026-05-07 22:45 52.69846 -8.92842 25 ft 3 kts 134°
2026-05-07 22:45 52.69818 -8.92794 24 ft 8 kts 134°
2026-05-07 22:46 52.69767 -8.92709 23 ft 13 kts 135°
2026-05-07 22:46 52.69694 -8.92593 23 ft 16 kts 136°
2026-05-07 22:46 52.69609 -8.92456 22 ft 17 kts 136°
2026-05-07 22:46 52.69557 -8.92370 22 ft 10 kts 130°
2026-05-07 22:47 52.69519 -8.92312 23 ft 1 kts 154°
2026-05-07 22:47 52.69498 -8.92296 23 ft 6 kts 154°
2026-05-07 22:47 52.69454 -8.92273 23 ft 7 kts 175°
2026-05-07 22:47 52.69418 -8.92276 24 ft 3 kts 184°
2026-05-07 22:48 52.69391 -8.92279 22 ft 5 kts 185°
2026-05-07 22:48 52.69383 -8.92280 22 ft 0 kts 185°